sat.trackr.live / text

‹ back to catalog

STARLINK-4366

NORAD 53227 · 2022-084AQ

PAYLOAD ACTIVE UNKNOWN

§ Identity

Operator
Country
US
Launch date
2022-07-22
Launch site
AFWTR
Launch vehicle
Mass (kg)
RCS (m²)

Purposes: comms

External: N2YO · Heavens-Above · Gunter

§ Orbital elements

Epoch: 2026-05-25T02:36:59.365152Z

Period
95.64 min
Inclination
97.4506°
Eccentricity
0.0002127
Mean motion
15.05665373 rev/d
Perigee alt
548.0 km
Apogee alt
550.9 km
Semi-major
6,927.6 km
B*
2.5475e-7
RAAN
206.1561°
Arg perigee
94.7869°
Mean anomaly
265.3601°
Rev number
21,088

§ Raw data

STARLINK-43661 53227U 22084AQ  26145.10902043 -.00000055  00000+0  25475-6 0  99912 53227  97.4506 206.1561 0002127  94.7869 265.3601 15.05665373210881

JSON: /api/v1/satellites/53227 · /tle

For live sub-satellite position, see the globe view (requires WebGL).

§ Visibility from observer

Set your observer location to see the next 7 days of passes ≥ 10°. The values pass through the URL so the page stays shareable.

No JS? Fill the form by hand. The geolocation button needs JavaScript.